Location: Drawsko Pomorskie
(53.5317°N, 15.8111°E)
Time: 05:15:36
(UTC+01:00)

Envisat - Pass Details

Date: 25 October 2019
Orbit: 764 x 766 km, 98.1° (Epoch: 16 November)

Event Time Altitude Azimuth Distance (km) Brightness Sun altitude
Rises 18:06:06 0° 145° (SE) 3,225 6.0 -4.7°
Reaches altitude 10° 18:08:27 10° 140° (SE) 2,303 5.2 -5.0°
Maximum altitude 18:13:19 49° 67° (ENE) 984 3.2 -5.7°
Drops below altitude 10° 18:18:14 10° 353° (N) 2,317 5.5 -6.4°
Sets 18:20:36 0° 349° (NNW) 3,247 6.3 -6.8°
